Zurück zum Katalog

DELTA 1 DEB

AktivSSO
NORAD 12198·DEBRIS·🇺🇸 United States

Gestartet Mar 5, 1978 von Vandenberg Space Force Base

Loading…

Nächste Überflüge (nächste 24 Stunden)

TLE

AktuellSource: Space-Track

Epoche: Sep 14, 2026, 06:11 UTC

1 12198U 78026AP  26257.25811777  .00000267  00000-0  18778-3 0  9993
2 12198  99.1462 174.5499 0117755  24.5233 336.1472 14.03388215323669

Verfolge DELTA 1 DEB in Echtzeit mit AllMySat

Download on the App Store